Regional Weather Roundup
Issued by NWS

Home | Current Version | Previous Version | Text Only | Print | Product List | Glossary On
Versions: 1 2 3 4 5 6 7 8 9 10 11 12 13 14 15 16 17 18 19 20 21 22 23 24 25 26 27 28 29 30 31 32 33 34 35 36 37 38 39 40 41 42 43 44 45 46 47 48 49 50
000
ASUS46 KSEW 250410
RWRWA

WASHINGTON REGIONAL WEATHER ROUNDUP
NATIONAL WEATHER SERVICE SEATTLE WA
900 PM PDT THU JUL 24 2014

NOTE:"FAIR" INDICATES FEW OR NO CLOUDS BELOW 12,000 FEET WITH NO
SIGNIFICANT WEATHER AND/OR OBSTRUCTIONS TO VISIBILITY.

WAZ505-507>509-250500-
SEATTLE, TACOMA, EVERETT, AND VICINITY

CITY           SKY/WX    TMP DP  RH WIND       PRES   REMARKS
EVERETT        CLOUDY    58  49  72 NE3       30.22S
BOEING FIELD   MOCLDY    62  52  69 NE5       30.21R
RENTON         CLOUDY    60  54  80 NW5       30.20S
SEATAC AIRPORT MOCLDY    60  53  77 NE8       30.22R
JBLM-MCCHORD   CLOUDY    64  49  59 W8        30.21R
PUYALLUP       CLOUDY    63  50  63 CALM      30.21S
JBLM-FT LEWIS  CLOUDY    63  49  60 SW6       30.20R
TACOMA NARROWS CLOUDY    62  50  64 W3        30.21R
$$

WAZ001-503-506-510-514-515-250500-
NORTH INTERIOR

CITY           SKY/WX    TMP DP  RH WIND       PRES   REMARKS
BELLINGHAM     CLEAR     61  50  67 S7        30.18R
FRIDAY HARBOR  CLEAR     58  49  72 SW10      30.19R
EASTSOUND      CLEAR     61  50  67 S3        30.16R
PORT ANGELES   MOCLDY    57  50  77 NW8       30.21R
NAS WHIDBEY    MOCLDY    59  50  72 SW8       30.21R
BURLINGTON     CLOUDY    61  52  72 S6        30.21S
$$

WAZ020-022-039-040-504-511-512-250500-
SOUTHWEST INTERIOR

CITY           SKY/WX    TMP DP  RH WIND       PRES   REMARKS
SHELTON        PTCLDY    60  50  69 SW8       30.19R
OLYMPIA        CLEAR     60  50  69 W6        30.21R
CHEHALIS       FAIR      61  54  77 CALM      30.22R
KELSO          CLEAR     63  52  67 CALM      30.24S
VANCOUVER      PTCLDY    64  52  64 N6        30.19F
SCAPPOOSE, OR  MOCLDY    62  52  69 NW3       30.19F
PORTLAND, OR   PTCLDY    64  52  64 N7        30.20S
$$

WAZ021-516-517-250500-
WASHINGTON COAST

CITY           SKY/WX    TMP DP  RH WIND       PRES   REMARKS
FORKS          CLOUDY    57  55  93 CALM      30.22S FOG
HOQUIAM        CLEAR     59  54  83 W3        30.22F
ASTORIA, OR    CLEAR     57  52  83 W6        30.22S
$$

WAZ019-023-024-040-518-519-250500-
CASCADE MOUNTAINS AND COLUMBIA GORGE

CITY           SKY/WX    TMP DP  RH WIND       PRES   REMARKS
STAMPEDE PASS  FOG       47  45  93 VRB7      30.21S VSB 3/4
TROUTDALE, OR  CLOUDY    66  52  60 VRB3      30.19R
THE DALLES, OR CLEAR     66  51  58 W12       30.14R
$$

WAZ026-027-041>044-520-521-250500-
EAST SLOPES

CITY           SKY/WX    TMP DP  RH WIND       PRES   REMARKS
OMAK           CLEAR     65  37  35 W3        30.04R
WENATCHEE      CLEAR     68  45  43 NW10      30.08R
ELLENSBURG     MOCLDY    61  49  64 NW15      30.14R
YAKIMA         CLEAR     67  47  48 NW7       30.11R
$$

WAZ028-034-035-250500-
COLUMBIA BASIN

CITY           SKY/WX    TMP DP  RH WIND       PRES   REMARKS
EPHRATA        CLEAR     69  43  38 NW15      30.05R
MOSES LAKE     CLEAR     68  48  48 W10       30.06R
PASCO          CLEAR     72  52  49 W7        30.07R
HERMISTON, OR  CLEAR     67  50  54 SW12      30.09R
$$

WAZ036>038-250500-
NORTHEAST WASHINGTON

CITY           SKY/WX    TMP DP  RH WIND       PRES   REMARKS
SPOKANE GEIGER MOCLDY    66  43  43 S9        30.07S
SPOKANE FELTS  MOCLDY    68  43  40 SW8       30.07S
FAIRCHILD AFB  CLOUDY    64  46  51 SW10      30.08S
COEURDALENE,ID MOCLDY    63  45  51 SW7       30.07R
DEER PARK      MOCLDY    63  46  54 S10       30.06S
$$

WAZ029>033-250500-
SOUTHEAST WASHINGTON

CITY           SKY/WX    TMP DP  RH WIND       PRES   REMARKS
PULLMAN        CLEAR     60  43  53 SW3       30.13R
LEWISTON, ID   CLEAR     71  41  33 W14G21    30.07R
WALLA WALLA    CLEAR     69  45  41 SW9       30.10S
PENDLETON, OR  CLEAR     64  46  52 W9        30.11R
$$



USA.gov is the U.S. government's official web portal to all federal, state and local government web resources and services.